Date String (YYYY-MM-DD hh:mm:ss) UTC,Instrument flags,Ambient pressure (hPa),Sample flow (lpm),Bypass flow (lpm),Sample temperature (°C),Ambient temperature (°C),ASC tube jacket temperature (°C),LED temperature (°C),Box temperature (°C),Sample RH (%),Span deviation,Mass concentration (μg/m³),Mass concentration (μg/m³),Mass concentration (μg/m³)
DateTimeUTC,F1_M11,P_M11,Q1_M11,Q2_M11,T1_M11,T2_M11,T3_M11,T4_M11,T5_M11,U1_M11,ZSPAN_M11,X0_M11,X2_M11,X1_M11
2022-02-01 08:00:00,,0818.8,5.00,0.00,21.5,20.7,00.0,30.8,23.1,11.0,0000.0,0010.59,0003.73,0002.93
2022-02-01 08:01:00,,0818.8,5.01,0.00,21.5,20.6,00.0,30.7,23.0,11.1,0000.0,0010.57,0003.75,0002.93
2022-02-01 08:02:00,,0818.8,5.00,0.00,21.4,20.5,00.0,30.7,23.0,11.1,0000.0,0010.24,0003.75,0002.90
2022-02-01 08:03:00,,0818.7,5.01,0.00,21.4,20.5,00.0,30.7,22.9,11.1,0000.0,0010.55,0003.76,0002.88
2022-02-01 08:04:00,,0818.8,4.98,0.00,21.3,20.5,00.0,30.6,22.9,11.1,0000.0,0010.90,0003.78,0002.87
2022-02-01 08:05:00,,0818.8,5.01,0.00,21.3,20.4,00.0,30.6,22.8,11.1,0000.0,0010.83,0003.75,0002.85
2022-02-01 08:06:00,,0818.8,4.99,0.00,21.2,20.4,00.0,30.6,22.8,11.1,0000.0,0010.36,0003.69,0002.83
2022-02-01 08:07:00,,0818.8,5.01,0.00,21.3,20.7,00.0,30.6,22.9,11.1,0000.0,0009.74,0003.68,0002.82
2022-02-01 08:08:00,,0819.0,5.00,0.00,21.4,21.6,00.0,30.6,23.2,11.0,0000.0,0009.43,0003.65,0002.81
2022-02-01 08:09:00,,0818.9,4.98,0.00,21.6,22.4,00.0,30.6,23.5,10.9,0000.0,0009.99,0003.65,0002.79
2022-02-01 08:10:00,,0818.9,5.00,0.00,21.7,22.4,00.0,30.6,23.6,10.9,0000.0,0009.94,0003.62,0002.77
2022-02-01 08:11:00,,0818.8,5.00,0.00,21.7,22.1,00.0,30.7,23.5,10.9,0000.0,0009.79,0003.57,0002.75
2022-02-01 08:12:00,,0818.8,5.00,0.00,21.6,21.8,00.0,30.7,23.4,10.8,0000.0,0009.66,0003.54,0002.73
2022-02-01 08:13:00,,0818.8,5.01,0.00,21.6,21.5,00.0,30.7,23.3,10.9,0000.0,0009.71,0003.56,0002.72
2022-02-01 08:14:00,,0818.8,5.00,0.00,21.6,21.3,00.0,30.6,23.2,10.8,0000.0,0010.01,0003.57,0002.69
2022-02-01 08:15:00,,0818.9,4.99,0.00,21.5,21.2,00.0,30.6,23.2,10.8,0000.0,0009.76,0003.53,0002.68
2022-02-01 08:16:00,,0818.9,5.02,0.00,21.5,21.1,00.0,30.6,23.2,10.9,0000.0,0010.06,0003.55,0002.68
2022-02-01 08:17:00,,0818.8,4.99,0.00,21.5,21.0,00.0,30.6,23.1,10.9,0000.0,0010.48,0003.55,0002.67
2022-02-01 08:18:00,,0818.8,5.00,0.00,21.5,20.9,00.0,30.6,23.1,10.9,0000.0,0010.62,0003.55,0002.66
2022-02-01 08:19:00,,0818.8,4.98,0.00,21.4,20.8,00.0,30.6,23.0,10.9,0000.0,0010.78,0003.59,0002.65
2022-02-01 08:20:00,,0818.8,5.02,0.00,21.4,20.7,00.0,30.6,22.9,11.0,0000.0,0010.68,0003.57,0002.64
2022-02-01 08:21:00,,0818.9,4.99,0.00,21.3,20.7,00.0,30.6,22.9,10.9,0000.0,0011.94,0003.58,0002.63
2022-02-01 08:22:00,,0819.0,5.01,0.00,21.3,20.5,00.0,30.5,22.8,11.0,0000.0,0012.89,0003.60,0002.62
2022-02-01 08:23:00,,0818.9,4.98,0.00,21.3,20.4,00.0,30.5,22.8,11.0,0000.0,0013.37,0003.62,0002.60
2022-02-01 08:24:00,,0818.9,5.02,0.00,21.2,20.4,00.0,30.5,22.8,11.1,0000.0,0013.68,0003.61,0002.61
2022-02-01 08:25:00,,0819.0,4.99,0.00,21.2,20.6,00.0,30.5,22.8,11.1,0000.0,0013.45,0003.61,0002.63
2022-02-01 08:26:00,,0819.0,5.01,0.00,21.4,21.6,00.0,30.5,23.2,11.0,0000.0,0013.48,0003.62,0002.64
2022-02-01 08:27:00,,0819.1,4.99,0.00,21.5,22.5,00.0,30.5,23.5,10.9,0000.0,0014.57,0003.59,0002.64
2022-02-01 08:28:00,,0818.9,5.01,0.00,21.7,22.4,00.0,30.6,23.6,10.8,0000.0,0015.05,0003.58,0002.64
2022-02-01 08:29:00,,0818.9,5.00,0.00,21.7,22.1,00.0,30.6,23.5,10.8,0000.0,0014.87,0003.58,0002.65
2022-02-01 08:30:00,,0819.0,4.99,0.00,21.7,21.9,00.0,30.6,23.4,10.8,0000.0,0014.56,0003.55,0002.65
2022-02-01 08:31:00,,0818.9,4.99,0.00,21.6,21.7,00.0,30.6,23.4,10.8,0000.0,0014.59,0003.55,0002.64
2022-02-01 08:32:00,,0819.0,5.01,0.00,21.6,21.5,00.0,30.6,23.3,10.8,0000.0,0013.44,0003.54,0002.64
2022-02-01 08:33:00,,0819.0,5.00,0.00,21.6,21.3,00.0,30.6,23.2,10.8,0000.0,0012.54,0003.52,0002.62
2022-02-01 08:34:00,,0819.1,4.99,0.00,21.5,21.2,00.0,30.6,23.1,10.9,0000.0,0012.67,0003.50,0002.63
2022-02-01 08:35:00,,0819.1,5.02,0.00,21.5,21.0,00.0,30.6,23.1,10.9,0000.0,0012.57,0003.52,0002.63
2022-02-01 08:36:00,,0819.1,4.99,0.00,21.5,20.9,00.0,30.6,23.0,11.0,0000.0,0012.29,0003.50,0002.62
2022-02-01 08:37:00,,0819.0,5.01,0.00,21.4,20.8,00.0,30.6,23.0,11.0,0000.0,0011.98,0003.47,0002.62
2022-02-01 08:38:00,,0819.0,5.01,0.00,21.4,20.8,00.0,30.5,23.0,11.0,0000.0,0011.23,0003.50,0002.63
2022-02-01 08:39:00,,0819.0,4.98,0.00,21.4,20.7,00.0,30.5,23.0,10.9,0000.0,0010.27,0003.51,0002.63
2022-02-01 08:40:00,,0819.0,5.00,0.00,21.4,20.6,00.0,30.5,23.0,11.0,0000.0,0010.39,0003.51,0002.63
2022-02-01 08:41:00,,0819.1,5.00,0.00,21.3,20.6,00.0,30.5,22.9,11.0,0000.0,0011.56,0003.53,0002.64
2022-02-01 08:42:00,,0819.1,4.99,0.00,21.3,20.6,00.0,30.5,22.9,11.1,0000.0,0011.45,0003.56,0002.66
2022-02-01 08:43:00,,0819.1,5.00,0.00,21.3,20.6,00.0,30.5,22.9,11.1,0000.0,0011.66,0003.61,0002.68
2022-02-01 08:44:00,,0819.2,4.98,0.00,21.3,20.6,00.0,30.5,22.9,11.1,0000.0,0011.83,0003.62,0002.69
2022-02-01 08:45:00,,0819.2,5.01,0.00,21.3,20.7,00.0,30.4,22.9,11.1,0000.0,0011.79,0003.60,0002.71
2022-02-01 08:46:00,,0819.2,5.00,0.00,21.4,21.4,00.0,30.5,23.2,11.0,0000.0,0011.93,0003.58,0002.71
2022-02-01 08:47:00,,0819.2,5.00,0.00,21.6,22.3,00.0,30.5,23.5,11.0,0000.0,0012.28,0003.60,0002.71
2022-02-01 08:48:00,,0819.1,4.99,0.00,21.7,22.7,00.0,30.6,23.7,10.9,0000.0,0012.34,0003.60,0002.71
2022-02-01 08:49:00,,0819.1,5.00,0.00,21.7,22.4,00.0,30.6,23.6,10.9,0000.0,0011.98,0003.59,0002.70
2022-02-01 08:50:00,,0819.1,5.00,0.00,21.7,22.0,00.0,30.6,23.5,10.9,0000.0,0011.54,0003.57,0002.70
2022-02-01 08:51:00,,0819.3,5.01,0.00,21.7,21.8,00.0,30.6,23.4,10.9,0000.0,0011.16,0003.58,0002.69
2022-02-01 08:52:00,,0819.2,5.01,0.00,21.6,21.6,00.0,30.6,23.3,10.9,0000.0,0010.26,0003.57,0002.68
2022-02-01 08:53:00,,0819.2,5.00,0.00,21.6,21.3,00.0,30.6,23.2,11.0,0000.0,0010.28,0003.55,0002.66
2022-02-01 08:54:00,,0819.2,5.00,0.00,21.5,21.1,00.0,30.6,23.1,11.0,0000.0,0010.23,0003.50,0002.67
2022-02-01 08:55:00,,0819.2,5.01,0.00,21.5,21.0,00.0,30.6,23.1,11.0,0000.0,0010.54,0003.50,0002.66
2022-02-01 08:56:00,,0819.2,4.99,0.00,21.5,20.8,00.0,30.6,23.1,11.1,0000.0,0009.98,0003.50,0002.66
2022-02-01 08:57:00,,0819.2,5.01,0.00,21.4,20.8,00.0,30.6,23.0,11.1,0000.0,0009.74,0003.49,0002.65
2022-02-01 08:58:00,,0819.2,5.00,0.00,21.4,20.7,00.0,30.6,23.0,11.2,0000.0,0009.68,0003.48,0002.65
2022-02-01 08:59:00,,0819.2,4.99,0.00,21.3,20.6,00.0,30.5,22.9,11.2,0000.0,0010.59,0003.44,0002.64
